THORAD AGENA D DEB, 16715

Orbit data source: Space-Track

THORAD AGENA D DEB, 16715 is space debris in SSO originally from a launch on Wed, 08 Apr 1970 UTC launched from the Air Force Western Test Range (AFWTR). Debris objects in space refer to the collection of defunct objects orbiting the Earth. Examples of debris include non-operational satellites, rocket bodies, and fragments generated from explosions, collisions, or faulty payload assembly.

Loading next visibility...
Identifier
16715, 1970-025PA
Orbit
SSO
Country
Flag of USUS
Related business
Manufacturer
Unknown
Mission
Spacecraft
Bus & Motor
Unknown
Mass
Unknown
Launch date (UTC)
1970-04-08 (56 years ago)
Launch vehicle
Unknown
Launch site
Air Force Western Test Range (AFWTR)
Object type
Payload
Rocket body
Debris
Shape & HBR
Unknown shape, 0.1 m
Radar Cross Section
Medium (>0.1 m² and <1 m²)

Expand to show TLE details & history
Last TLE update: 13 hours ago

TLE from 13 hours ago
0 THORAD AGENA D DEB
1 16715U 70025PA  26256.36756056  .00000130  00000-0  23301-3 0  9999
2 16715 100.1366  77.5892 0005853 209.1445 269.1300 13.61557793 57733
Epoch: 2026-09-13T08:49Z
TLE epoch observation values (Epoch: 2026-09-13T08:49:17.232Z)
Latitude
60.26267°
Longitude
151.04521°
Altitude
1,040.266 km
Speed
7.337 km/s
True Right ascension
18h 22m 55s
True Declination
60° 07' 12"
Sunlit
Object was in daylight at epoch
Visualization orbit readout
Latitude
Unknown
Longitude
Unknown
Altitude
Unknown
Speed
Unknown
Apparent Right ascension
Unknown
Apparent Declination
Unknown
Sunlit
N/A
Visualization observer readout
Local Sidereal Time
14:18:12
Azimuth
Unknown
Elevation
Unknown
Doppler factor
Unknown
Orbital elements
Apogee altitude
1,031.68 km
Perigee altitude
1,023.011 km
Semi-major axis
7,405.482 km
Eccentricity
0.00059
Inclination
100.1366°
RAAN
77.5892°
Arg. of periapsis
209.1445°
True anomaly
269.06294°
Mean anomaly
269.13°
Eccentric anomaly
269.09647°
Mean motion
3.40575 °/min
Orbital period
105.7 mins
BSTAR
0.00023301

Documentation

Showing up to 5 results
|